FW8061 Weather Reports


time (UTC)temp
C
wind
direction
speed
KPH
gust
KPH
rain 1hr
cm
rain 24hr
cm
rain mn
cm
humidity
%
barometer
mb
20260510031017 11 173 9.7 17.7 0.00 0.00 0.00 82 1005.9
20260510030018 11 186 9.7 16.1 0.00 0.00 0.00 83 1006.3
20260510025018 11 180 8.0 14.5 0.00 0.00 0.00 83 1006.5
20260510024018 11 181 9.7 19.3 0.00 0.00 0.00 83 1006.6
20260510023018 11 187 9.7 17.7 0.00 0.00 0.00 82 1006.7
20260510022018 11 178 8.0 14.5 0.00 0.00 0.00 82 1006.8
20260510021020 11 180 8.0 19.3 0.00 0.00 0.00 82 1006.9
20260510020019 11 184 9.7 24.1 0.00 0.00 0.00 81 1007.1
20260510015020 11 183 8.0 16.1 0.00 0.00 0.00 81 1007.4
20260510014019 11 176 11.3 19.3 0.00 0.00 0.00 80 1007.1
20260510013016 11 178 8.0 16.1 0.00 0.00 0.00 79 1007.2
20260510012019 11 177 11.3 24.1 0.00 0.00 0.00 77 1007.2
20260510011020 11 176 8.0 17.7 0.00 0.00 0.00 76 1007.2
20260510010021 11 179 11.3 17.7 0.00 0.00 0.00 75 1007.1
20260510005038 12 172 9.7 20.9 0.00 0.00 0.00 74 1007.1
20260510004020 12 192 8.0 17.7 0.00 0.00 0.00 74 1007.3
20260510003017 12 180 9.7 14.5 0.00 0.00 0.00 74 1007.1
20260510002017 12 186 9.7 19.3 0.00 0.00 0.00 74 1007.0
20260510001021 12 187 8.0 17.7 0.00 0.00 0.00 73 1007.1
20260510000018 12 185 6.4 14.5 0.00 0.00 0.00 73 1007.1
20260509235018 12 196 6.4 12.9 0.00 0.00 0.00 73 1007.0
20260509234019 12 183 11.3 24.1 0.00 0.00 0.00 73 1006.9
20260509233018 13 178 9.7 17.7 0.00 0.00 0.00 72 1006.9
20260509232019 13 193 9.7 19.3 0.00 0.00 0.00 70 1006.9
20260509231019 13 184 6.4 12.9 0.00 0.00 0.00 69 1007.0
20260509230020 13 176 11.3 22.5 0.00 0.00 0.00 67 1007.1
20260509225039 14 171 9.7 20.9 0.00 0.00 0.00 65 1007.1
20260509224040 14 199 8.0 14.5 0.00 0.00 0.00 65 1007.2
20260509223040 14 178 9.7 17.7 0.00 0.00 0.00 65 1007.3
20260509222016 15 173 11.3 22.5 0.00 0.00 0.00 63 1007.1
20260509221019 15 174 9.7 16.1 0.00 0.00 0.00 62 1007.0
20260509220020 15 173 9.7 20.9 0.00 0.00 0.00 60 1007.0
20260509215017 15 186 9.7 22.5 0.00 0.00 0.00 57 1007.1
20260509214020 15 185 11.3 22.5 0.00 0.00 0.00 56 1007.2
20260509213037 16 186 9.7 17.7 0.00 0.00 0.00 53 1007.4
20260509212017 16 177 9.7 19.3 0.00 0.00 0.00 53 1007.3
20260509211021 16 184 9.7 20.9 0.00 0.00 0.00 53 1007.2
20260509210019 16 185 9.7 16.1 0.00 0.00 0.00 51 1007.3
20260509205018 16 167 9.7 19.3 0.00 0.00 0.00 51 1007.3
20260509204022 16 180 8.0 16.1 0.00 0.00 0.00 49 1007.4
20260509203018 16 181 8.0 16.1 0.00 0.00 0.00 47 1007.4
20260509202018 16 183 9.7 19.3 0.00 0.00 0.00 44 1007.5
20260509201019 17 181 8.0 17.7 0.00 0.00 0.00 41 1007.6
20260509200019 17 182 9.7 25.7 0.00 0.00 0.00 42 1007.6
20260509195041 17 186 9.7 16.1 0.00 0.00 0.00 39 1007.7
20260509194019 17 184 9.7 19.3 0.00 0.00 0.00 34 1007.7
20260509193017 17 191 9.7 19.3 0.00 0.00 0.00 31 1007.7
20260509192020 17 180 9.7 20.9 0.00 0.00 0.00 29 1007.7
20260509191040 17 180 9.7 27.4 0.00 0.00 0.00 28 1007.8
20260509190017 17 188 6.4 17.7 0.00 0.00 0.00 30 1007.8
20260509185020 17 188 8.0 20.9 0.00 0.00 0.00 28 1008.0
20260509184037 17 184 8.0 14.5 0.00 0.00 0.00 26 1008.2
20260509183018 17 183 8.0 17.7 0.00 0.00 0.00 28 1008.2
20260509182020 17 176 6.4 17.7 0.00 0.00 0.00 29 1008.5
20260509181018 17 184 8.0 20.9 0.00 0.00 0.00 27 1008.5
20260509180019 17 175 6.4 14.5 0.00 0.00 0.00 28 1008.8
20260509175039 17 172 4.8 9.7 0.00 0.00 0.00 28 1009.0
20260509174018 17 176 8.0 16.1 0.00 0.00 0.00 28 1009.1
20260509173019 17 176 8.0 20.9 0.00 0.00 0.00 28 1009.2
20260509172040 17 178 6.4 16.1 0.00 0.00 0.00 28 1009.3
20260509171020 16 189 6.4 14.5 0.00 0.00 0.00 29 1009.5
20260509170020 16 184 8.0 14.5 0.00 0.00 0.00 28 1009.8
20260509165019 16 168 9.7 19.3 0.00 0.00 0.00 28 1009.9
20260509164019 16 191 6.4 16.1 0.00 0.00 0.00 30 1009.9
20260509163040 16 181 9.7 17.7 0.00 0.00 0.00 30 1010.0
20260509162018 16 183 8.0 17.7 0.00 0.00 0.00 31 1010.2
20260509161021 16 183 8.0 14.5 0.00 0.00 0.00 30 1010.3
20260509160019 16 183 9.7 19.3 0.00 0.00 0.00 32 1010.4
20260509155018 15 179 9.7 16.1 0.00 0.00 0.00 35 1010.7
20260509154041 15 177 9.7 16.1 0.00 0.00 0.00 35 1010.8
20260509153017 15 177 9.7 16.1 0.00 0.00 0.00 37 1011.1
20260509152017 15 169 9.7 17.7 0.00 0.00 0.00 37 1011.1
20260509151022 14 181 6.4 14.5 0.00 0.00 0.00 39 1011.2
20260509150018 13 192 9.7 16.1 0.00 0.00 0.00 39 1011.3
20260509145018 13 199 9.7 17.7 0.00 0.00 0.00 42 1011.3
20260509144018 13 181 8.0 17.7 0.00 0.00 0.00 42 1011.3
20260509143019 13 200 8.0 16.1 0.00 0.00 0.00 43 1011.2
20260509142019 13 185 6.4 16.1 0.00 0.00 0.00 45 1011.4
20260509141020 12 170 6.4 12.9 0.00 0.00 0.00 47 1011.4
20260509140019 12 179 8.0 16.1 0.00 0.00 0.00 48 1011.5
20260509135020 12 181 8.0 17.7 0.00 0.00 0.00 49 1011.5
20260509134039 12 177 6.4 17.7 0.00 0.00 0.00 50 1011.6
20260509133019 11 198 8.0 14.5 0.00 0.00 0.00 51 1011.7
20260509132016 11 183 8.0 16.1 0.00 0.00 0.00 52 1011.7
20260509131020 11 191 6.4 12.9 0.00 0.00 0.00 54 1011.8
20260509130021 10 193 6.4 14.5 0.00 0.00 0.00 56 1011.9
20260509125017 10 193 6.4 12.9 0.00 0.00 0.00 57 1012.0
20260509124020 10 191 6.4 12.9 0.00 0.00 0.00 57 1012.0
20260509123018 9 173 6.4 12.9 0.00 0.00 0.00 60 1012.0
20260509122038 8 197 6.4 9.7 0.00 0.00 0.00 63 1011.9
20260509121018 8 184 4.8 11.3 0.00 0.00 0.00 64 1011.8
20260509120018 7 187 4.8 11.3 0.00 0.00 0.00 65 1012.0
20260509115018 7 187 4.8 8.0 0.00 0.00 0.00 67 1012.0
20260509114042 7 177 6.4 12.9 0.00 0.00 0.00 67 1011.9
20260509113040 6 182 6.4 12.9 0.00 0.00 0.00 70 1012.1
20260509112020 6 203 6.4 11.3 0.00 0.00 0.00 73 1012.1
20260509111039 5 210 6.4 11.3 0.00 0.00 0.00 74 1012.2
20260509110019 5 213 4.8 9.7 0.00 0.00 0.00 74 1012.1
20260509105019 4 201 6.4 11.3 0.00 0.00 0.00 74 1012.0
20260509104019 4 193 4.8 9.7 0.00 0.00 0.00 74 1011.9
20260509103019 4 188 4.8 8.0 0.00 0.00 0.00 74 1011.8
20260509102044 4 188 4.8 8.0 0.00 0.00 0.00 74 1011.7
20260509101019 4 205 4.8 8.0 0.00 0.00 0.00 74 1011.7
20260509100019 4 205 4.8 9.7 0.00 0.00 0.00 74 1011.6
20260509095040 4 194 4.8 8.0 0.00 0.00 0.00 74 1011.5
20260509094022 4 211 3.2 6.4 0.00 0.00 0.00 74 1011.5
20260509093024 4 209 3.2 4.8 0.00 0.00 0.00 74 1011.3
20260509092023 4 209 3.2 6.4 0.00 0.00 0.00 73 1011.3
20260509091023 4 210 3.2 3.2 0.00 0.00 0.00 73 1011.3
20260509090023 4 201 3.2 4.8 0.00 0.00 0.00 73 1011.2
20260509085024 4 188 3.2 8.0 0.00 0.00 0.00 72 1011.2
20260509084024 4 199 4.8 8.0 0.00 0.00 0.00 71 1011.3
20260509083021 4 199 4.8 11.3 0.00 0.00 0.00 70 1011.4
20260509082022 5 195 4.8 9.7 0.00 0.00 0.00 70 1011.2
20260509081024 5 196 4.8 8.0 0.00 0.00 0.00 69 1011.2
20260509080104 5 195 3.2 6.4 0.00 0.00 0.00 69 1011.2
20260509075024 5 193 4.8 6.4 0.00 0.00 0.00 69 1011.2
20260509074026 5 196 3.2 6.4 0.00 0.00 0.00 69 1011.3
20260509073024 5 201 3.2 6.4 0.00 0.00 0.00 69 1011.2
20260509072025 5 200 3.2 6.4 0.00 0.00 0.00 68 1011.2
20260509071208 6 187 3.2 6.4 0.00 0.00 0.00 68 1011.1
20260509070025 6 191 3.2 6.4 0.00 0.00 0.00 65 1011.0
20260509065026 6 182 3.2 6.4 0.00 0.00 0.00 64 1011.0
20260509064026 7 194 3.2 4.8 0.00 0.00 0.00 62 1011.0
20260509063043 7 184 4.8 8.0 0.00 0.00 0.00 60 1010.9
20260509062026 7 187 4.8 8.0 0.00 0.00 0.00 61 1010.9
20260509061027 7 207 3.2 4.8 0.00 0.00 0.00 61 1011.0
20260509060027 7 196 4.8 6.4 0.00 0.00 0.00 61 1011.0
20260509055026 7 189 4.8 6.4 0.00 0.00 0.00 60 1011.0
20260509054027 7 194 3.2 8.0 0.00 0.00 0.00 60 1011.1
20260509053023 7 194 4.8 9.7 0.00 0.00 0.00 59 1011.0
20260509052040 7 192 4.8 9.7 0.00 0.00 0.00 60 1011.0
20260509051019 7 199 4.8 9.7 0.00 0.00 0.00 60 1011.0
20260509050018 7 186 4.8 9.7 0.00 0.00 0.00 62 1011.0
20260509045040 7 189 4.8 11.3 0.00 0.00 0.00 63 1011.0
20260509044039 7 185 4.8 9.7 0.00 0.00 0.00 64 1011.0
20260509043020 8 180 4.8 8.0 0.00 0.00 0.00 61 1011.0
20260509042019 8 193 4.8 8.0 0.00 0.00 0.00 60 1011.0
20260509041019 8 188 3.2 8.0 0.00 0.00 0.00 61 1010.9
20260509040020 8 200 3.2 8.0 0.00 0.00 0.00 61 1010.9
20260509035019 8 197 3.2 6.4 0.00 0.00 0.00 59 1011.0
20260509034037 9 206 3.2 8.0 0.00 0.00 0.00 57 1010.9
20260509033020 9 209 3.2 8.0 0.00 0.00 0.00 57 1010.9
20260509032017 9 216 1.6 4.8 0.00 0.00 0.00 56 1010.8